Location: *
(45.5667°S, 177.5167°W)
Time: 23:05:11
(UTC+00:00)

BREEZE-M DEB (TANK) - Pass Details

Date: 29 May 2022
Orbit: 335 x 11981 km, 49.7° (Epoch: 24 June)

Event Time Altitude Azimuth Distance (km) Brightness Sun altitude
Rises 05:03:57 0° 245° (WSW) 7,283 8.5 -8.1°
Reaches altitude 10° 05:10:36 10° 245° (WSW) 4,654 7.5 -9.1°
Maximum altitude 05:20:01 64° 324° (NW) 881 3.4 -10.7°
Drops below altitude 10° 05:23:21 10° 46° (NE) 1,708 4.4 -11.2°
Enters shadow 05:24:32 - 50° (NE) 2,255 5.0 -11.4°
